When you browse on this site, cookies collect data to enhance your experience and personalize the content and advertising you see.
Visit our Privacy Policy to learn more. By continuing to use the site, you agree to this use of cookies and data.
  • In Hungary
  • List of Countries
  • For 7 days
  • Water Temperature
  • Weather Map
  • News
  • Weather Widgets
  • user-avatar
    Login

    Hourly Weather Turbo

    Today, 13 December, Friday

    Time Temperature Precipitation Wind Pressure Humidity
    00:00 +25°C° 0.1 mm 1 mps 757 mmHg 97%
    01:00 +25°C° 0 mm 1 mps 756 mmHg 97%
    02:00 +23°C° 0 mm 0 mps 756 mmHg 97%
    03:00 +23°C° 0 mm 0 mps 756 mmHg 97%
    04:00 +23°C° 0 mm 0 mps 756 mmHg 97%
    05:00 +23°C° 0 mm 0 mps 756 mmHg 97%
    06:00 +23°C° 0 mm 0 mps 756 mmHg 97%
    07:00 +25°C° 0 mm 1 mps 757 mmHg 96%
    08:00 +27°C° 0 mm 1 mps 757 mmHg 87%
    09:00 +29°C° 0 mm 1 mps 757 mmHg 78%
    10:00 +31°C° 0 mm 1 mps 758 mmHg 68%
    11:00 +32°C° 0 mm 1 mps 757 mmHg 65%
    12:00 +33°C° 0 mm 1 mps 756 mmHg 62%
    13:00 +33°C° 0 mm 1 mps 755 mmHg 58%
    14:00 +33°C° 0 mm 1 mps 755 mmHg 60%
    15:00 +34°C° 0 mm 2 mps 755 mmHg 62%
    16:00 +32°C° 0 mm 2 mps 754 mmHg 63%
    17:00 +30°C° 0 mm 2 mps 755 mmHg 73%
    18:00 +28°C° 0 mm 2 mps 755 mmHg 82%
    19:00 +26°C° 0 mm 2 mps 756 mmHg 92%
    20:00 +26°C° 0.1 mm 1 mps 756 mmHg 93%
    21:00 +26°C° 0.1 mm 1 mps 757 mmHg 94%
    22:00 +23°C° 0.1 mm 0 mps 758 mmHg 95%
    23:00 +25°C° 0.1 mm 1 mps 757 mmHg 96%

    Tomorrow, 14 December, Saturday

    Time Temperature Precipitation Wind Pressure Humidity
    00:00 +25°C° 0.1 mm 1 mps 757 mmHg 96%
    01:00 +25°C° 0.1 mm 1 mps 757 mmHg 96%
    02:00 +25°C° 0 mm 1 mps 757 mmHg 97%
    03:00 +25°C° 0 mm 2 mps 757 mmHg 97%
    04:00 +24°C° 0 mm 2 mps 757 mmHg 98%
    05:00 +25°C° 0 mm 2 mps 757 mmHg 97%
    06:00 +25°C° 0 mm 2 mps 757 mmHg 95%
    07:00 +25°C° 0 mm 2 mps 757 mmHg 94%
    08:00 +27°C° 0 mm 1 mps 758 mmHg 85%
    09:00 +30°C° 0 mm 1 mps 758 mmHg 76%
    10:00 +32°C° 0 mm 1 mps 759 mmHg 66%
    11:00 +32°C° 0.2 mm 1 mps 758 mmHg 67%
    12:00 +33°C° 0.2 mm 1 mps 757 mmHg 67%
    13:00 +31°C° 0.2 mm 0 mps 756 mmHg 68%
    14:00 +32°C° 0.3 mm 1 mps 756 mmHg 72%
    15:00 +31°C° 0.3 mm 1 mps 756 mmHg 76%
    16:00 +31°C° 0.3 mm 2 mps 755 mmHg 80%
    17:00 +29°C° 0.4 mm 1 mps 756 mmHg 85%
    18:00 +28°C° 0.4 mm 1 mps 756 mmHg 91%
    19:00 +26°C° 0.4 mm 1 mps 756 mmHg 96%
    20:00 +26°C° 0.5 mm 1 mps 757 mmHg 96%
    21:00 +26°C° 0.5 mm 1 mps 758 mmHg 97%
    22:00 +23°C° 0.5 mm 0 mps 758 mmHg 97%
    23:00 +23°C° 0.7 mm 0 mps 758 mmHg 97%

    Day after tomorrow, 15 December, Sunday

    Time Temperature Precipitation Wind Pressure Humidity
    00:00 +23°C° 0.7 mm 0 mps 758 mmHg 97%
    01:00 +25°C° 0.7 mm 1 mps 758 mmHg 98%
    02:00 +25°C° 0.6 mm 1 mps 757 mmHg 98%
    03:00 +25°C° 0.6 mm 1 mps 757 mmHg 98%
    04:00 +25°C° 0.6 mm 1 mps 757 mmHg 98%
    05:00 +25°C° 0.1 mm 1 mps 758 mmHg 98%
    06:00 +25°C° 0.1 mm 1 mps 758 mmHg 97%
    07:00 +25°C° 0.1 mm 1 mps 759 mmHg 97%
    08:00 +27°C° 0.1 mm 1 mps 759 mmHg 90%
    09:00 +29°C° 0.1 mm 1 mps 759 mmHg 82%
    10:00 +31°C° 0.1 mm 1 mps 759 mmHg 75%
    11:00 +31°C° 0.1 mm 1 mps 759 mmHg 71%
    12:00 +32°C° 0.1 mm 2 mps 758 mmHg 67%
    13:00 +34°C° 0.1 mm 2 mps 757 mmHg 64%
    14:00 +32°C° 0.4 mm 2 mps 756 mmHg 70%
    15:00 +31°C° 0.4 mm 3 mps 756 mmHg 77%
    16:00 +30°C° 0.4 mm 3 mps 755 mmHg 84%
    17:00 +29°C° 0.2 mm 3 mps 756 mmHg 87%
    18:00 +27°C° 0.2 mm 2 mps 756 mmHg 91%
    19:00 +26°C° 0.2 mm 2 mps 757 mmHg 94%
    20:00 +26°C° 0.3 mm 2 mps 757 mmHg 95%
    21:00 +26°C° 0.3 mm 2 mps 758 mmHg 96%
    22:00 +25°C° 0.3 mm 1 mps 758 mmHg 96%
    23:00 +25°C° 0 mm 1 mps 758 mmHg 96%

    16 December, Monday

    Time Temperature Precipitation Wind Pressure Humidity
    00:00 +25°C° 0 mm 1 mps 758 mmHg 96%
    01:00 +25°C° 0 mm 1 mps 757 mmHg 96%
    02:00 +25°C° 0 mm 1 mps 757 mmHg 97%
    03:00 +23°C° 0 mm 0 mps 757 mmHg 97%
    04:00 +23°C° 0 mm 0 mps 756 mmHg 97%
    05:00 +23°C° 0 mm 0 mps 757 mmHg 97%
    06:00 +23°C° 0 mm 0 mps 757 mmHg 96%
    07:00 +25°C° 0 mm 1 mps 757 mmHg 96%
    08:00 +28°C° 0 mm 1 mps 758 mmHg 87%
    09:00 +30°C° 0 mm 1 mps 758 mmHg 77%
    10:00 +32°C° 0 mm 1 mps 758 mmHg 68%
    11:00 +33°C° 0 mm 1 mps 757 mmHg 65%
    12:00 +33°C° 0 mm 1 mps 757 mmHg 63%
    13:00 +33°C° 0 mm 1 mps 756 mmHg 60%
    14:00 +34°C° 0.1 mm 2 mps 755 mmHg 64%
    15:00 +32°C° 0.1 mm 2 mps 755 mmHg 68%
    16:00 +31°C° 0.1 mm 2 mps 754 mmHg 72%
    17:00 +30°C° 0.2 mm 2 mps 755 mmHg 79%
    18:00 +28°C° 0.2 mm 2 mps 755 mmHg 86%
    19:00 +27°C° 0.2 mm 2 mps 756 mmHg 94%
    20:00 +26°C° 0.5 mm 2 mps 756 mmHg 94%
    21:00 +26°C° 0.5 mm 1 mps 756 mmHg 95%
    22:00 +26°C° 0.5 mm 1 mps 757 mmHg 95%
    23:00 +26°C° 0.3 mm 1 mps 757 mmHg 95%

    17 December, Tuesday

    Time Temperature Precipitation Wind Pressure Humidity
    00:00 +26°C° 0.3 mm 1 mps 756 mmHg 96%
    01:00 +25°C° 0.3 mm 1 mps 756 mmHg 96%
    02:00 +25°C° 0.1 mm 1 mps 756 mmHg 96%
    03:00 +25°C° 0.1 mm 2 mps 756 mmHg 97%
    04:00 +25°C° 0.1 mm 2 mps 755 mmHg 97%
    05:00 +25°C° 0.1 mm 2 mps 756 mmHg 97%
    06:00 +25°C° 0.1 mm 2 mps 756 mmHg 97%
    07:00 +25°C° 0.1 mm 2 mps 756 mmHg 96%
    08:00 +27°C° 0 mm 2 mps 757 mmHg 89%
    09:00 +29°C° 0 mm 2 mps 757 mmHg 82%
    10:00 +31°C° 0 mm 3 mps 757 mmHg 75%
    11:00 +32°C° 0.1 mm 2 mps 756 mmHg 71%
    12:00 +34°C° 0.1 mm 2 mps 755 mmHg 67%
    13:00 +35°C° 0.1 mm 2 mps 755 mmHg 63%
    14:00 +33°C° 0.8 mm 1 mps 754 mmHg 72%
    15:00 +32°C° 0.8 mm 1 mps 754 mmHg 80%
    16:00 +31°C° 0.8 mm 1 mps 753 mmHg 89%
    17:00 +29°C° 1.2 mm 1 mps 754 mmHg 91%
    18:00 +28°C° 1.2 mm 1 mps 754 mmHg 94%
    19:00 +26°C° 1.2 mm 1 mps 755 mmHg 96%
    20:00 +26°C° 0.3 mm 1 mps 755 mmHg 97%
    21:00 +26°C° 0.3 mm 1 mps 756 mmHg 97%
    22:00 +25°C° 0.3 mm 2 mps 756 mmHg 97%
    23:00 +25°C° 0.3 mm 2 mps 756 mmHg 97%

    18 December, Wednesday

    Time Temperature Precipitation Wind Pressure Humidity
    00:00 +25°C° 0.3 mm 2 mps 756 mmHg 97%
    01:00 +25°C° 0.3 mm 2 mps 756 mmHg 98%
    02:00 +25°C° 0.2 mm 2 mps 755 mmHg 98%
    03:00 +25°C° 0.2 mm 2 mps 755 mmHg 98%
    04:00 +25°C° 0.2 mm 2 mps 755 mmHg 99%
    05:00 +25°C° 0 mm 2 mps 755 mmHg 98%
    06:00 +25°C° 0 mm 2 mps 756 mmHg 98%
    07:00 +25°C° 0 mm 3 mps 756 mmHg 98%
    08:00 +27°C° 0 mm 3 mps 757 mmHg 90%
    09:00 +29°C° 0 mm 3 mps 757 mmHg 83%
    10:00 +30°C° 0 mm 3 mps 757 mmHg 75%
    11:00 +31°C° 0 mm 2 mps 757 mmHg 71%
    12:00 +32°C° 0 mm 2 mps 756 mmHg 67%
    13:00 +34°C° 0 mm 2 mps 755 mmHg 62%
    14:00 +32°C° 1.1 mm 2 mps 755 mmHg 71%
    15:00 +31°C° 1.1 mm 2 mps 754 mmHg 80%
    16:00 +30°C° 1.1 mm 2 mps 754 mmHg 88%
    17:00 +29°C° 0.8 mm 2 mps 755 mmHg 91%
    18:00 +27°C° 0.8 mm 2 mps 755 mmHg 94%
    19:00 +26°C° 0.8 mm 2 mps 756 mmHg 97%
    20:00 +26°C° 0.1 mm 2 mps 756 mmHg 97%
    21:00 +26°C° 0.1 mm 2 mps 756 mmHg 97%
    22:00 +25°C° 0.1 mm 2 mps 757 mmHg 98%
    23:00 +25°C° 0.1 mm 2 mps 757 mmHg 98%
    Show more